START_TIME,STEP,MOV.,M29,t_acc.,H22,t_acc.,H26,t_acc.,H30,t_acc.
1979-07-03 15:22:18.360 ,0,0,,0,,0,,0,,0
1979-07-03 15:22:32.760 ,2,1,0.,24.0,0.,24.0,0.,24.0,0.,24.0
1979-07-03 15:22:56.760 ,2,0,0.,24.0,0.,24.0,0.,24.0,0.,24.0
1979-07-03 15:23:20.760 ,0,0,,0,,0,,0,,0
1979-07-03 15:23:44.760 ,0,0,,0,,0,,0,,0
1979-07-03 15:24:14.760 ,0,0,0.,24.0,0.,24.0,0.,24.0,0.,24.0
1979-07-03 15:24:32.760 ,0,0,0.,24.0,0.,24.0,0.,24.0,0.,24.0
1979-07-03 15:24:56.760 ,0,1,0.,24.0,0.,24.0,0.,24.0,0.,24.0
1979-07-03 15:25:20.760 ,0,0,0.,24.0,0.,24.0,0.,24.0,0.,24.0
1979-07-03 15:25:44.760 ,1,1,0.,24.0,0.,24.0,0.,24.0,0.,24.0
1979-07-03 15:26:08.760 ,1,0,0.,24.0,0.,24.0,0.,24.0,0.,24.0
1979-07-03 15:26:32.760 ,2,1,0.,24.0,0.,24.0,0.,24.0,0.,24.0
1979-07-03 15:26:56.760 ,2,0,0.,24.0,0.,24.0,0.,24.0,0.,24.0
1979-07-03 15:27:20.760 ,3,1,0.,24.0,0.,24.0,0.,24.0,0.,24.0
1979-07-03 15:27:44.760 ,3,0,0.,24.0,0.,24.0,0.,24.0,0.,24.0
1979-07-03 15:28:08.760 ,4,1,0.,24.0,0.,24.0,0.,24.0,0.,24.0
1979-07-03 15:28:32.760 ,4,0,0.,24.0,0.,24.0,0.,24.0,0.,24.0
1979-07-03 15:28:56.760 ,5,1,0.,24.0,0.,24.0,0.,24.0,0.,24.0
1979-07-03 15:29:20.760 ,5,0,0.,24.0,0.,24.0,0.,24.0,0.,24.0
1979-07-03 15:29:44.760 ,6,1,0.,24.0,0.,24.0,0.,24.0,0.,24.0
1979-07-03 15:30:08.760 ,6,0,0.,24.0,0.,24.0,0.,24.0,0.,24.0
1979-07-03 15:30:32.760 ,7,0,0.,24.0,0.,24.0,0.,24.0,0.,24.0
1979-07-03 15:30:56.760 ,7,0,0.,24.0,0.,24.0,0.,24.0,0.,24.0
1979-07-03 15:31:20.760 ,5,1,0.,24.0,0.,24.0,0.,24.0,0.,24.0
1979-07-03 15:31:44.760 ,1,1,0.,24.0,0.,24.0,0.,24.0,0.,24.0
1979-07-03 15:32:08.760 ,2,1,0.,24.0,0.,24.0,0.,24.0,0.,24.0
1979-07-03 15:32:32.760 ,6,1,0.,24.0,0.,24.0,0.,24.0,0.,24.0
1979-07-03 15:32:56.760 ,5,1,0.,24.0,0.,24.0,0.,24.0,0.,24.0
1979-07-03 15:33:20.760 ,1,1,0.,24.0,0.,24.0,0.,24.0,0.,24.0
1979-07-03 15:33:44.760 ,2,1,0.,24.0,0.,24.0,0.,24.0,0.,24.0
1979-07-03 15:34:08.760 ,6,1,0.,24.0,0.,24.0,0.,24.0,0.,24.0
1979-07-03 15:34:32.760 ,5,1,0.,24.0,0.,24.0,0.,24.0,0.,24.0
1979-07-03 15:34:56.760 ,1,1,0.,24.0,0.,24.0,0.,24.0,0.,24.0
1979-07-03 15:35:20.760 ,2,1,1.,24.0,0.,24.0,0.,24.0,0.,24.0
1979-07-03 15:35:44.760 ,6,1,0.,24.0,0.,24.0,0.,24.0,0.,24.0
1979-07-03 15:36:08.760 ,5,1,0.,24.0,0.,24.0,0.,24.0,0.,24.0
1979-07-03 15:36:32.760 ,1,1,0.,24.0,0.,24.0,0.,24.0,0.,24.0
1979-07-03 15:36:56.760 ,2,1,0.,24.0,0.,24.0,0.,24.0,0.,24.0
1979-07-03 15:37:20.760 ,6,1,0.,24.0,0.,24.0,0.,24.0,0.,24.0
1979-07-03 15:37:44.760 ,5,1,0.,24.0,0.,24.0,0.,24.0,0.,24.0
1979-07-03 15:38:08.760 ,1,1,0.,24.0,0.,24.0,0.,24.0,0.,24.0
1979-07-03 15:38:32.750 ,2,1,0.,24.0,0.,24.0,0.,24.0,0.,24.0
1979-07-03 15:38:56.750 ,6,1,0.,24.0,0.,24.0,0.,24.0,0.,24.0
1979-07-03 15:39:20.750 ,5,1,0.,24.0,0.,24.0,0.,24.0,0.,24.0
1979-07-03 15:39:44.750 ,1,1,0.,24.0,0.,24.0,0.,24.0,0.,24.0
1979-07-03 15:40:08.750 ,2,1,0.,24.0,0.,24.0,0.,24.0,0.,24.0
1979-07-03 15:40:32.750 ,6,1,0.,24.0,0.,24.0,0.,24.0,0.,24.0
1979-07-03 15:40:56.750 ,5,1,0.,24.0,0.,24.0,0.,24.0,0.,24.0
1979-07-03 15:41:20.750 ,1,1,0.,24.0,0.,24.0,0.,24.0,0.,24.0
1979-07-03 15:41:44.750 ,0,0,0.,24.0,0.,24.0,0.,24.0,0.,24.0
1979-07-03 15:42:08.750 ,0,0,0.,24.0,0.,24.0,0.,24.0,0.,24.0
1979-07-03 15:42:32.750 ,5,1,0.,24.0,0.,24.0,0.,24.0,0.,24.0
1979-07-03 15:42:56.750 ,5,0,0.,24.0,0.,24.0,0.,24.0,0.,24.0
1979-07-03 15:43:20.750 ,4,1,1.,24.0,0.,24.0,0.,24.0,0.,24.0
1979-07-03 15:43:44.750 ,4,0,0.,24.0,0.,24.0,0.,24.0,0.,24.0
1979-07-03 15:44:08.750 ,3,1,0.,24.0,0.,24.0,0.,24.0,0.,24.0
1979-07-03 15:44:32.750 ,3,0,0.,24.0,0.,24.0,0.,24.0,0.,24.0
1979-07-03 15:44:56.750 ,2,1,0.,24.0,0.,24.0,0.,24.0,0.,24.0
1979-07-03 15:45:20.750 ,2,0,0.,24.0,0.,24.0,0.,24.0,0.,24.0
1979-07-03 15:45:44.750 ,1,1,0.,24.0,0.,24.0,0.,24.0,0.,24.0
1979-07-03 15:46:08.750 ,1,0,0.,24.0,0.,24.0,0.,24.0,0.,24.0
1979-07-03 15:46:32.750 ,0,1,0.,24.0,0.,24.0,0.,24.0,0.,24.0
1979-07-03 15:46:56.750 ,0,0,0.,24.0,0.,24.0,0.,24.0,0.,24.0
1979-07-03 15:47:20.750 ,0,1,0.,24.0,0.,24.0,0.,24.0,0.,24.0
1979-07-03 15:47:44.750 ,0,0,0.,24.0,0.,24.0,0.,24.0,0.,24.0
1979-07-03 15:48:08.750 ,1,1,0.,24.0,0.,24.0,0.,24.0,0.,24.0
1979-07-03 15:48:32.750 ,1,0,0.,24.0,0.,24.0,0.,24.0,0.,24.0
1979-07-03 15:48:56.750 ,2,1,0.,24.0,0.,24.0,0.,24.0,0.,24.0
1979-07-03 15:49:20.750 ,2,0,1.,24.0,0.,24.0,0.,24.0,0.,24.0
1979-07-03 15:49:44.750 ,3,1,0.,24.0,0.,24.0,0.,24.0,0.,24.0
1979-07-03 15:50:08.750 ,3,0,0.,24.0,0.,24.0,0.,24.0,0.,24.0
1979-07-03 15:50:32.750 ,4,1,0.,24.0,0.,24.0,0.,24.0,0.,24.0
1979-07-03 15:50:56.750 ,4,0,0.,24.0,0.,24.0,0.,24.0,0.,24.0
1979-07-03 15:51:20.750 ,5,1,0.,24.0,0.,24.0,0.,24.0,0.,24.0
1979-07-03 15:51:44.750 ,5,0,0.,24.0,0.,24.0,0.,24.0,0.,24.0
1979-07-03 15:52:08.750 ,6,1,0.,24.0,0.,24.0,0.,24.0,0.,24.0
1979-07-03 15:52:32.750 ,6,0,0.,24.0,0.,24.0,0.,24.0,0.,24.0
1979-07-03 15:52:56.750 ,7,1,0.,24.0,0.,24.0,0.,24.0,0.,24.0
1979-07-03 15:53:20.750 ,7,0,0.,24.0,0.,24.0,0.,24.0,0.,24.0
1979-07-03 15:53:44.750 ,7,1,0.,24.0,0.,24.0,0.,24.0,0.,24.0
1979-07-03 15:54:08.750 ,7,0,0.,24.0,0.,24.0,0.,24.0,0.,24.0
1979-07-03 15:54:32.750 ,6,1,0.,24.0,0.,24.0,0.,24.0,0.,24.0
1979-07-03 15:54:56.750 ,6,0,0.,24.0,0.,24.0,0.,24.0,0.,24.0
1979-07-03 15:55:20.750 ,5,1,0.,24.0,0.,24.0,0.,24.0,0.,24.0
1979-07-03 15:55:44.750 ,5,0,0.,24.0,0.,24.0,0.,24.0,0.,24.0
1979-07-03 15:56:08.750 ,4,1,0.,24.0,0.,24.0,0.,24.0,0.,24.0
1979-07-03 15:56:32.750 ,4,0,0.,24.0,0.,24.0,0.,24.0,0.,24.0
1979-07-03 15:56:56.750 ,3,1,0.,24.0,0.,24.0,0.,24.0,0.,24.0
1979-07-03 15:57:20.750 ,3,0,0.,24.0,0.,24.0,0.,24.0,0.,24.0
1979-07-03 15:57:44.750 ,2,1,0.,24.0,0.,24.0,0.,24.0,0.,24.0
1979-07-03 15:58:08.750 ,2,0,0.,24.0,0.,24.0,0.,24.0,0.,24.0
1979-07-03 15:58:32.750 ,1,1,0.,24.0,0.,24.0,0.,24.0,0.,24.0
1979-07-03 15:58:56.750 ,1,0,0.,24.0,0.,24.0,0.,24.0,0.,24.0
1979-07-03 15:59:20.750 ,0,1,0.,24.0,0.,24.0,0.,24.0,0.,24.0
1979-07-03 15:59:44.750 ,0,0,0.,24.0,0.,24.0,0.,24.0,0.,24.0
1979-07-03 16:00:08.750 ,0,1,0.,24.0,0.,24.0,0.,24.0,0.,24.0
1979-07-03 16:00:32.760 ,0,0,0.,24.0,0.,24.0,0.,24.0,0.,24.0
1979-07-03 16:00:56.750 ,1,1,0.,24.0,0.,24.0,0.,24.0,0.,24.0
1979-07-03 16:01:20.750 ,1,0,0.,24.0,0.,24.0,0.,24.0,0.,24.0
1979-07-03 16:01:44.750 ,2,1,0.,24.0,0.,24.0,0.,24.0,0.,24.0
1979-07-03 16:02:08.750 ,2,0,0.,24.0,0.,24.0,0.,24.0,0.,24.0
1979-07-03 16:02:32.750 ,3,1,0.,24.0,0.,24.0,0.,24.0,0.,24.0
1979-07-03 16:02:56.750 ,3,0,0.,24.0,0.,24.0,0.,24.0,0.,24.0
1979-07-03 16:03:20.750 ,4,1,0.,24.0,0.,24.0,0.,24.0,0.,24.0
1979-07-03 16:03:44.750 ,4,0,0.,24.0,0.,24.0,0.,24.0,0.,24.0
1979-07-03 16:04:08.750 ,5,1,0.,24.0,0.,24.0,0.,24.0,0.,24.0
1979-07-03 16:04:32.750 ,5,0,0.,24.0,0.,24.0,0.,24.0,0.,24.0
1979-07-03 16:04:56.750 ,6,1,0.,24.0,0.,24.0,0.,24.0,0.,24.0
1979-07-03 16:05:20.750 ,6,0,0.,24.0,0.,24.0,0.,24.0,0.,24.0
1979-07-03 16:05:44.750 ,7,1,0.,24.0,0.,24.0,0.,24.0,0.,24.0
1979-07-03 16:06:08.750 ,7,0,0.,24.0,0.,24.0,0.,24.0,0.,24.0
1979-07-03 16:06:32.750 ,7,1,0.,24.0,0.,24.0,0.,24.0,0.,24.0
1979-07-03 16:06:56.750 ,7,0,0.,24.0,0.,24.0,0.,24.0,0.,24.0
1979-07-03 16:07:20.750 ,6,1,0.,24.0,0.,24.0,0.,24.0,0.,24.0
1979-07-03 16:07:44.750 ,6,0,0.,24.0,0.,24.0,0.,24.0,0.,24.0
1979-07-03 16:08:08.750 ,5,1,0.,24.0,0.,24.0,0.,24.0,0.,24.0
1979-07-03 16:08:32.750 ,5,0,0.,24.0,0.,24.0,0.,24.0,0.,24.0
1979-07-03 16:08:56.750 ,4,1,0.,24.0,0.,24.0,0.,24.0,0.,24.0
1979-07-03 16:09:20.750 ,4,0,0.,24.0,0.,24.0,0.,24.0,0.,24.0
1979-07-03 16:09:44.750 ,3,1,0.,24.0,0.,24.0,0.,24.0,0.,24.0
1979-07-03 16:10:08.750 ,3,0,0.,24.0,0.,24.0,0.,24.0,0.,24.0
1979-07-03 16:10:32.750 ,2,1,0.,24.0,0.,24.0,0.,24.0,0.,24.0
1979-07-03 16:10:56.750 ,2,0,0.,24.0,0.,24.0,0.,24.0,0.,24.0
1979-07-03 16:11:20.750 ,1,1,0.,24.0,0.,24.0,0.,24.0,0.,24.0
1979-07-03 16:11:44.750 ,1,0,0.,24.0,0.,24.0,0.,24.0,0.,24.0
1979-07-03 16:12:08.750 ,0,1,0.,24.0,0.,24.0,0.,24.0,0.,24.0
1979-07-03 16:12:32.750 ,0,0,0.,24.0,0.,24.0,0.,24.0,0.,24.0
1979-07-03 16:12:56.750 ,0,1,0.,24.0,0.,24.0,0.,24.0,0.,24.0
1979-07-03 16:13:20.750 ,0,0,0.,24.0,0.,24.0,0.,24.0,0.,24.0
1979-07-03 16:13:44.750 ,1,1,0.,24.0,0.,24.0,0.,24.0,0.,24.0
1979-07-03 16:14:08.750 ,1,0,0.,24.0,0.,24.0,0.,24.0,0.,24.0
1979-07-03 16:14:32.750 ,2,1,0.,24.0,0.,24.0,0.,24.0,0.,24.0
1979-07-03 16:14:56.750 ,2,0,0.,24.0,0.,24.0,0.,24.0,0.,24.0
1979-07-03 16:15:20.750 ,3,1,0.,24.0,0.,24.0,0.,24.0,0.,24.0
1979-07-03 16:15:44.750 ,3,0,0.,24.0,0.,24.0,0.,24.0,0.,24.0
1979-07-03 16:16:08.750 ,4,1,0.,24.0,0.,24.0,0.,24.0,0.,24.0
1979-07-03 16:16:32.750 ,4,0,0.,24.0,0.,24.0,0.,24.0,0.,24.0
1979-07-03 16:16:56.750 ,5,1,0.,24.0,0.,24.0,0.,24.0,0.,24.0
1979-07-03 16:17:20.750 ,5,0,0.,24.0,0.,24.0,0.,24.0,0.,24.0
1979-07-03 16:17:44.750 ,6,1,0.,24.0,0.,24.0,0.,24.0,0.,24.0
1979-07-03 16:18:08.750 ,6,0,0.,24.0,0.,24.0,0.,24.0,0.,24.0
1979-07-03 16:18:32.750 ,7,0,1.,24.0,0.,24.0,0.,24.0,0.,24.0
1979-07-03 16:18:56.750 ,7,0,0.,24.0,0.,24.0,0.,24.0,0.,24.0
1979-07-03 16:19:20.750 ,5,1,0.,24.0,0.,24.0,0.,24.0,0.,24.0
1979-07-03 16:19:44.750 ,1,1,0.,24.0,0.,24.0,0.,24.0,0.,24.0
1979-07-03 16:20:08.750 ,2,1,0.,24.0,0.,24.0,0.,24.0,0.,24.0
1979-07-03 16:20:32.750 ,6,1,0.,24.0,0.,24.0,0.,24.0,0.,24.0
1979-07-03 16:20:56.750 ,5,1,0.,24.0,0.,24.0,0.,24.0,0.,24.0
1979-07-03 16:21:20.750 ,1,1,0.,24.0,0.,24.0,0.,24.0,0.,24.0
1979-07-03 16:21:44.750 ,2,1,0.,24.0,0.,24.0,0.,24.0,0.,24.0
1979-07-03 16:22:08.750 ,6,1,0.,24.0,0.,24.0,0.,24.0,0.,24.0
1979-07-03 16:22:32.750 ,5,1,0.,24.0,0.,24.0,0.,24.0,0.,24.0
1979-07-03 16:22:56.750 ,1,1,0.,24.0,0.,24.0,0.,24.0,0.,24.0
1979-07-03 16:23:20.750 ,2,1,0.,24.0,0.,24.0,0.,24.0,0.,24.0
1979-07-03 16:23:44.750 ,6,1,0.,24.0,0.,24.0,0.,24.0,0.,24.0
1979-07-03 16:24:08.750 ,5,1,0.,24.0,0.,24.0,0.,24.0,0.,24.0
1979-07-03 16:24:32.750 ,1,1,0.,24.0,0.,24.0,0.,24.0,0.,24.0
1979-07-03 16:24:56.750 ,2,1,1.,24.0,0.,24.0,0.,24.0,0.,24.0
1979-07-03 16:25:20.750 ,6,1,0.,24.0,0.,24.0,0.,24.0,0.,24.0
1979-07-03 16:25:44.750 ,5,1,0.,24.0,0.,24.0,0.,24.0,0.,24.0
1979-07-03 16:26:08.750 ,1,1,0.,24.0,0.,24.0,0.,24.0,0.,24.0
1979-07-03 16:26:32.750 ,2,1,0.,24.0,0.,24.0,0.,24.0,0.,24.0
1979-07-03 16:26:56.750 ,6,1,0.,24.0,0.,24.0,0.,24.0,0.,24.0
1979-07-03 16:27:20.750 ,5,1,0.,24.0,0.,24.0,0.,24.0,0.,24.0
1979-07-03 16:27:44.750 ,1,1,0.,24.0,0.,24.0,0.,24.0,0.,24.0
1979-07-03 16:28:08.750 ,2,1,0.,24.0,0.,24.0,0.,24.0,0.,24.0
1979-07-03 16:28:32.750 ,6,1,0.,24.0,0.,24.0,0.,24.0,0.,24.0
1979-07-03 16:28:56.750 ,5,1,0.,24.0,0.,24.0,0.,24.0,0.,24.0
1979-07-03 16:29:20.750 ,1,1,0.,24.0,0.,24.0,0.,24.0,0.,24.0
1979-07-03 16:29:44.750 ,0,0,0.,24.0,0.,24.0,0.,24.0,0.,24.0
1979-07-03 16:30:08.750 ,0,0,0.,24.0,0.,24.0,0.,24.0,0.,24.0
1979-07-03 16:30:32.750 ,5,1,0.,24.0,0.,24.0,0.,24.0,0.,24.0
1979-07-03 16:30:56.750 ,5,0,0.,24.0,0.,24.0,0.,24.0,0.,24.0
1979-07-03 16:31:20.750 ,4,1,0.,24.0,0.,24.0,0.,24.0,0.,24.0
1979-07-03 16:31:44.750 ,4,0,0.,24.0,0.,24.0,0.,24.0,0.,24.0
1979-07-03 16:32:08.750 ,3,1,0.,24.0,0.,24.0,0.,24.0,0.,24.0
1979-07-03 16:32:32.750 ,3,0,0.,24.0,0.,24.0,0.,24.0,0.,24.0
1979-07-03 16:32:56.750 ,2,1,0.,24.0,0.,24.0,0.,24.0,0.,24.0
1979-07-03 16:33:20.750 ,2,0,0.,24.0,0.,24.0,0.,24.0,0.,24.0
1979-07-03 16:33:44.750 ,1,1,0.,24.0,0.,24.0,0.,24.0,0.,24.0
1979-07-03 16:34:08.750 ,1,0,0.,24.0,0.,24.0,0.,24.0,0.,24.0
1979-07-03 16:34:32.750 ,0,1,0.,24.0,0.,24.0,0.,24.0,0.,24.0
1979-07-03 16:34:56.750 ,0,0,0.,24.0,0.,24.0,0.,24.0,0.,24.0
1979-07-03 16:35:20.750 ,0,1,0.,24.0,0.,24.0,0.,24.0,0.,24.0
1979-07-03 16:35:44.750 ,0,0,0.,24.0,0.,24.0,0.,24.0,0.,24.0
1979-07-03 16:36:08.750 ,1,1,0.,24.0,0.,24.0,0.,24.0,0.,24.0
1979-07-03 16:36:32.750 ,1,0,0.,24.0,0.,24.0,0.,24.0,0.,24.0
1979-07-03 16:36:56.750 ,2,1,0.,24.0,0.,24.0,0.,24.0,0.,24.0
1979-07-03 16:37:20.750 ,2,0,0.,24.0,0.,24.0,0.,24.0,0.,24.0
1979-07-03 16:37:44.750 ,3,1,0.,24.0,0.,24.0,0.,24.0,0.,24.0
1979-07-03 16:38:08.750 ,3,0,0.,24.0,0.,24.0,0.,24.0,0.,24.0
1979-07-03 16:38:32.750 ,4,1,0.,24.0,0.,24.0,0.,24.0,0.,24.0
1979-07-03 16:38:56.750 ,4,0,0.,24.0,0.,24.0,0.,24.0,0.,24.0
1979-07-03 16:39:20.750 ,5,1,0.,24.0,0.,24.0,0.,24.0,0.,24.0
1979-07-03 16:39:44.750 ,5,0,0.,24.0,0.,24.0,0.,24.0,0.,24.0
1979-07-03 16:40:08.750 ,6,1,0.,24.0,0.,24.0,0.,24.0,0.,24.0
1979-07-03 16:40:32.750 ,6,0,0.,24.0,0.,24.0,0.,24.0,0.,24.0
1979-07-03 16:40:56.750 ,7,1,0.,24.0,0.,24.0,0.,24.0,0.,24.0
1979-07-03 16:41:20.750 ,7,0,0.,24.0,0.,24.0,0.,24.0,0.,24.0
1979-07-03 16:41:44.750 ,7,1,0.,24.0,0.,24.0,0.,24.0,0.,24.0
1979-07-03 16:42:08.750 ,7,0,0.,24.0,0.,24.0,0.,24.0,0.,24.0
1979-07-03 16:42:32.750 ,6,1,0.,24.0,0.,24.0,0.,24.0,0.,24.0
1979-07-03 16:42:56.750 ,6,0,1.,24.0,0.,24.0,0.,24.0,0.,24.0
1979-07-03 16:43:20.750 ,5,1,0.,24.0,0.,24.0,0.,24.0,0.,24.0
1979-07-03 16:43:44.750 ,5,0,0.,24.0,0.,24.0,0.,24.0,0.,24.0
1979-07-03 16:44:08.750 ,4,1,0.,24.0,0.,24.0,0.,24.0,0.,24.0
1979-07-03 16:44:32.750 ,4,0,0.,24.0,0.,24.0,0.,24.0,0.,24.0
1979-07-03 16:44:56.750 ,3,1,0.,24.0,0.,24.0,0.,24.0,0.,24.0
1979-07-03 16:45:20.750 ,3,0,0.,24.0,0.,24.0,0.,24.0,0.,24.0
1979-07-03 16:45:44.750 ,2,1,0.,24.0,0.,24.0,0.,24.0,0.,24.0
1979-07-03 16:46:08.750 ,2,0,0.,24.0,0.,24.0,0.,24.0,0.,24.0
1979-07-03 16:46:32.750 ,1,1,0.,24.0,0.,24.0,0.,24.0,0.,24.0
1979-07-03 16:46:56.750 ,1,0,0.,24.0,0.,24.0,0.,24.0,0.,24.0
1979-07-03 16:47:20.750 ,0,1,0.,24.0,0.,24.0,0.,24.0,0.,24.0
1979-07-03 16:47:44.750 ,0,0,0.,24.0,0.,24.0,0.,24.0,0.,24.0
1979-07-03 16:48:08.750 ,0,1,0.,24.0,0.,24.0,0.,24.0,0.,24.0
1979-07-03 16:48:32.750 ,0,0,0.,24.0,0.,24.0,0.,24.0,0.,24.0
1979-07-03 16:48:56.750 ,0,0,,0,,0,,0,,0
1979-07-03 16:49:20.750 ,0,0,,0,,0,,0,,0
1979-07-03 16:50:47.750 ,0,0,,0,,0,,0,,0
1979-07-03 16:50:56.750 ,0,0,0.,24.0,0.,24.0,0.,24.0,0.,24.0
1979-07-03 16:51:20.750 ,4,1,0.,24.0,0.,24.0,0.,24.0,0.,24.0
1979-07-03 16:51:44.750 ,4,0,0.,24.0,0.,24.0,0.,24.0,0.,24.0
1979-07-03 16:52:08.750 ,5,1,0.,24.0,0.,24.0,0.,24.0,0.,24.0
1979-07-03 16:52:32.750 ,5,0,0.,24.0,0.,24.0,0.,24.0,0.,24.0
1979-07-03 16:52:56.750 ,6,1,0.,24.0,0.,24.0,0.,24.0,0.,24.0
1979-07-03 16:53:20.750 ,6,0,0.,24.0,0.,24.0,0.,24.0,0.,24.0
1979-07-03 16:53:44.750 ,7,1,0.,24.0,0.,24.0,0.,24.0,0.,24.0
1979-07-03 16:54:08.750 ,7,0,0.,24.0,0.,24.0,0.,24.0,0.,24.0
1979-07-03 16:54:32.750 ,7,1,0.,24.0,0.,24.0,0.,24.0,0.,24.0
1979-07-03 16:54:56.750 ,7,0,0.,24.0,0.,24.0,0.,24.0,0.,24.0
1979-07-03 16:55:20.750 ,6,1,0.,24.0,0.,24.0,0.,24.0,0.,24.0
1979-07-03 16:55:44.750 ,6,0,0.,24.0,0.,24.0,0.,24.0,0.,24.0
1979-07-03 16:56:08.750 ,5,1,0.,24.0,0.,24.0,0.,24.0,0.,24.0
1979-07-03 16:56:32.750 ,5,0,0.,24.0,0.,24.0,0.,24.0,0.,24.0
1979-07-03 16:56:56.750 ,4,1,0.,24.0,0.,24.0,0.,24.0,0.,24.0
1979-07-03 16:57:20.750 ,4,0,0.,24.0,0.,24.0,0.,24.0,0.,24.0
1979-07-03 16:57:44.750 ,3,1,0.,24.0,0.,24.0,0.,24.0,0.,24.0
1979-07-03 16:58:08.750 ,3,0,1.,24.0,0.,24.0,0.,24.0,0.,24.0
1979-07-03 16:58:32.750 ,2,1,0.,24.0,0.,24.0,0.,24.0,0.,24.0
1979-07-03 16:58:56.750 ,2,0,0.,24.0,0.,24.0,0.,24.0,0.,24.0
1979-07-03 16:59:20.750 ,1,1,0.,24.0,0.,24.0,0.,24.0,0.,24.0
1979-07-03 16:59:44.750 ,1,0,0.,24.0,0.,24.0,0.,24.0,0.,24.0
1979-07-03 17:00:08.750 ,0,1,0.,24.0,0.,24.0,0.,24.0,0.,24.0
1979-07-03 17:00:32.750 ,0,0,0.,24.0,0.,24.0,0.,24.0,0.,24.0
1979-07-03 17:00:56.750 ,0,0,0.,24.0,0.,24.0,0.,24.0,0.,24.0
1979-07-03 17:01:20.750 ,0,0,0.,24.0,0.,24.0,0.,24.0,0.,24.0
1979-07-03 17:01:44.750 ,1,1,0.,24.0,0.,24.0,0.,24.0,0.,24.0
1979-07-03 17:02:08.750 ,1,0,0.,24.0,0.,24.0,0.,24.0,0.,24.0
1979-07-03 17:02:32.750 ,2,1,0.,24.0,0.,24.0,0.,24.0,0.,24.0
1979-07-03 17:02:56.750 ,2,0,0.,24.0,0.,24.0,0.,24.0,0.,24.0
1979-07-03 17:03:20.750 ,3,1,0.,24.0,0.,24.0,0.,24.0,0.,24.0
1979-07-03 17:03:44.750 ,3,0,0.,24.0,0.,24.0,0.,24.0,0.,24.0
1979-07-03 17:04:08.750 ,4,1,0.,24.0,0.,24.0,0.,24.0,0.,24.0
1979-07-03 17:04:32.750 ,4,0,0.,24.0,0.,24.0,0.,24.0,0.,24.0
1979-07-03 17:04:56.750 ,5,1,0.,24.0,0.,24.0,0.,24.0,0.,24.0
1979-07-03 17:05:20.750 ,5,0,0.,24.0,0.,24.0,0.,24.0,0.,24.0
1979-07-03 17:05:44.750 ,6,1,0.,24.0,0.,24.0,0.,24.0,0.,24.0
1979-07-03 17:06:08.750 ,6,0,0.,24.0,0.,24.0,0.,24.0,0.,24.0
1979-07-03 17:06:32.750 ,7,0,0.,24.0,0.,24.0,0.,24.0,0.,24.0
1979-07-03 17:06:56.750 ,7,0,0.,24.0,0.,24.0,0.,24.0,0.,24.0
1979-07-03 17:07:20.750 ,5,1,0.,24.0,0.,24.0,0.,24.0,0.,24.0
1979-07-03 17:07:44.750 ,1,1,0.,24.0,0.,24.0,0.,24.0,0.,24.0
1979-07-03 17:08:08.750 ,2,1,0.,24.0,0.,24.0,0.,24.0,0.,24.0
1979-07-03 17:08:32.750 ,6,1,0.,24.0,0.,24.0,0.,24.0,0.,24.0
1979-07-03 17:08:56.750 ,5,1,1.,24.0,0.,24.0,0.,24.0,0.,24.0
1979-07-03 17:09:20.750 ,1,1,0.,24.0,0.,24.0,0.,24.0,0.,24.0
1979-07-03 17:09:44.750 ,2,1,0.,24.0,0.,24.0,0.,24.0,0.,24.0
1979-07-03 17:10:08.750 ,6,1,0.,24.0,0.,24.0,0.,24.0,0.,24.0
1979-07-03 17:10:32.750 ,5,1,0.,24.0,0.,24.0,0.,24.0,0.,24.0
1979-07-03 17:10:56.750 ,1,1,0.,24.0,0.,24.0,0.,24.0,0.,24.0
1979-07-03 17:11:20.750 ,2,1,0.,24.0,0.,24.0,0.,24.0,0.,24.0
1979-07-03 17:11:44.750 ,6,1,0.,24.0,0.,24.0,0.,24.0,0.,24.0
1979-07-03 17:12:08.750 ,5,1,0.,24.0,0.,24.0,0.,24.0,0.,24.0
1979-07-03 17:12:32.750 ,1,1,0.,24.0,0.,24.0,0.,24.0,0.,24.0
1979-07-03 17:12:56.750 ,2,1,0.,24.0,0.,24.0,0.,24.0,0.,24.0
1979-07-03 17:13:20.750 ,6,1,0.,24.0,0.,24.0,0.,24.0,0.,24.0
1979-07-03 17:13:44.750 ,5,1,0.,24.0,0.,24.0,0.,24.0,0.,24.0
1979-07-03 17:14:08.750 ,1,1,0.,24.0,0.,24.0,0.,24.0,0.,24.0
1979-07-03 17:14:32.750 ,2,1,0.,24.0,0.,24.0,0.,24.0,0.,24.0
1979-07-03 17:14:56.750 ,6,1,0.,24.0,0.,24.0,0.,24.0,0.,24.0
1979-07-03 17:15:20.750 ,5,1,0.,24.0,0.,24.0,0.,24.0,0.,24.0
1979-07-03 17:15:44.750 ,1,1,0.,24.0,0.,24.0,0.,24.0,0.,24.0
1979-07-03 17:16:08.750 ,2,1,0.,24.0,0.,24.0,0.,24.0,0.,24.0
1979-07-03 17:16:32.750 ,6,1,0.,24.0,0.,24.0,0.,24.0,0.,24.0
1979-07-03 17:16:56.750 ,5,1,0.,24.0,0.,24.0,0.,24.0,0.,24.0
1979-07-03 17:17:20.750 ,1,1,0.,24.0,0.,24.0,0.,24.0,0.,24.0
1979-07-03 17:17:44.750 ,0,0,1.,24.0,0.,24.0,0.,24.0,0.,24.0
1979-07-03 17:18:08.750 ,0,0,0.,24.0,0.,24.0,0.,24.0,0.,24.0
1979-07-03 17:18:32.750 ,5,1,0.,24.0,0.,24.0,0.,24.0,0.,24.0
1979-07-03 17:18:56.750 ,5,0,0.,24.0,0.,24.0,0.,24.0,0.,24.0
1979-07-03 17:19:20.750 ,4,1,0.,24.0,0.,24.0,0.,24.0,0.,24.0
1979-07-03 17:19:44.750 ,4,0,0.,24.0,0.,24.0,0.,24.0,0.,24.0
1979-07-03 17:20:08.750 ,3,1,0.,24.0,0.,24.0,0.,24.0,0.,24.0
1979-07-03 17:20:32.750 ,3,0,0.,24.0,0.,24.0,0.,24.0,0.,24.0
1979-07-03 17:20:56.750 ,2,1,0.,24.0,0.,24.0,0.,24.0,0.,24.0
1979-07-03 17:21:20.750 ,2,0,0.,24.0,0.,24.0,0.,24.0,0.,24.0
1979-07-03 17:21:44.750 ,1,1,0.,24.0,0.,24.0,0.,24.0,0.,24.0
1979-07-03 17:22:08.750 ,1,0,0.,24.0,0.,24.0,0.,24.0,0.,24.0
1979-07-03 17:22:32.750 ,0,1,0.,24.0,0.,24.0,0.,24.0,0.,24.0
1979-07-03 17:22:56.750 ,0,0,0.,24.0,0.,24.0,0.,24.0,0.,24.0
1979-07-03 17:23:20.750 ,0,1,0.,24.0,0.,24.0,0.,24.0,0.,24.0
1979-07-03 17:23:44.750 ,0,0,0.,24.0,0.,24.0,0.,24.0,0.,24.0
1979-07-03 17:24:08.750 ,1,1,0.,24.0,0.,24.0,0.,24.0,0.,24.0
1979-07-03 17:24:32.750 ,1,0,0.,24.0,0.,24.0,0.,24.0,0.,24.0
1979-07-03 17:24:56.750 ,2,1,0.,24.0,0.,24.0,0.,24.0,0.,24.0
1979-07-03 17:25:20.750 ,2,0,0.,24.0,0.,24.0,0.,24.0,0.,24.0
1979-07-03 17:25:44.750 ,3,1,0.,24.0,0.,24.0,0.,24.0,0.,24.0
1979-07-03 17:26:08.750 ,3,0,0.,24.0,0.,24.0,0.,24.0,0.,24.0
1979-07-03 17:26:32.750 ,4,1,0.,24.0,0.,24.0,0.,24.0,0.,24.0
1979-07-03 17:26:56.750 ,4,0,0.,24.0,0.,24.0,0.,24.0,0.,24.0
1979-07-03 17:27:20.750 ,5,1,0.,24.0,0.,24.0,0.,24.0,0.,24.0
1979-07-03 17:27:44.750 ,5,0,0.,24.0,0.,24.0,0.,24.0,0.,24.0
1979-07-03 17:28:08.750 ,6,1,0.,24.0,0.,24.0,0.,24.0,0.,24.0
1979-07-03 17:28:32.750 ,6,0,0.,24.0,0.,24.0,0.,24.0,0.,24.0
1979-07-03 17:28:56.750 ,7,1,0.,24.0,0.,24.0,0.,24.0,0.,24.0
1979-07-03 17:29:20.750 ,7,0,0.,24.0,0.,24.0,0.,24.0,0.,24.0
1979-07-03 17:29:44.750 ,7,1,0.,24.0,0.,24.0,0.,24.0,0.,24.0
1979-07-03 17:30:08.750 ,7,0,0.,24.0,0.,24.0,0.,24.0,0.,24.0
1979-07-03 17:30:32.750 ,6,1,0.,24.0,0.,24.0,0.,24.0,0.,24.0
1979-07-03 17:30:56.750 ,6,0,0.,24.0,0.,24.0,0.,24.0,0.,24.0
1979-07-03 17:31:20.750 ,5,1,0.,24.0,0.,24.0,0.,24.0,0.,24.0
1979-07-03 17:31:44.750 ,5,0,0.,24.0,0.,24.0,0.,24.0,0.,24.0
1979-07-03 17:32:08.750 ,4,1,0.,24.0,0.,24.0,0.,24.0,0.,24.0
1979-07-03 17:32:32.750 ,4,0,0.,24.0,0.,24.0,0.,24.0,0.,24.0
1979-07-03 17:32:56.750 ,3,1,0.,24.0,0.,24.0,0.,24.0,0.,24.0
1979-07-03 17:33:20.750 ,3,0,0.,24.0,0.,24.0,0.,24.0,0.,24.0
1979-07-03 17:33:44.750 ,2,1,0.,24.0,0.,24.0,0.,24.0,0.,24.0
1979-07-03 17:34:08.750 ,2,0,0.,24.0,0.,24.0,0.,24.0,0.,24.0
1979-07-03 17:34:32.750 ,1,1,0.,24.0,0.,24.0,0.,24.0,0.,24.0
1979-07-03 17:34:56.750 ,1,0,0.,24.0,0.,24.0,0.,24.0,0.,24.0
1979-07-03 17:35:20.750 ,0,1,0.,24.0,0.,24.0,0.,24.0,0.,24.0
1979-07-03 17:35:44.750 ,0,0,0.,24.0,0.,24.0,0.,24.0,0.,24.0
1979-07-03 17:36:08.750 ,0,1,0.,24.0,0.,24.0,0.,24.0,0.,24.0
1979-07-03 17:36:32.750 ,0,0,0.,24.0,0.,24.0,0.,24.0,0.,24.0
1979-07-03 17:36:56.750 ,1,1,0.,24.0,0.,24.0,0.,24.0,0.,24.0
1979-07-03 17:37:20.750 ,1,0,0.,24.0,0.,24.0,0.,24.0,0.,24.0
1979-07-03 17:37:44.750 ,2,1,0.,24.0,0.,24.0,0.,24.0,0.,24.0
1979-07-03 17:38:08.750 ,2,0,0.,24.0,0.,24.0,0.,24.0,0.,24.0
1979-07-03 17:38:32.750 ,3,1,0.,24.0,0.,24.0,0.,24.0,0.,24.0
1979-07-03 17:38:56.750 ,3,0,0.,24.0,0.,24.0,0.,24.0,0.,24.0
1979-07-03 17:39:20.750 ,4,1,0.,24.0,0.,24.0,0.,24.0,0.,24.0
1979-07-03 17:39:44.750 ,4,0,0.,24.0,0.,24.0,0.,24.0,0.,24.0
1979-07-03 17:40:08.750 ,5,1,0.,24.0,0.,24.0,0.,24.0,0.,24.0
1979-07-03 17:40:32.750 ,5,0,0.,24.0,0.,24.0,0.,24.0,0.,24.0
1979-07-03 17:40:56.750 ,6,1,0.,24.0,0.,24.0,0.,24.0,0.,24.0
1979-07-03 17:41:20.750 ,6,0,0.,24.0,0.,24.0,0.,24.0,0.,24.0
1979-07-03 17:41:44.750 ,7,1,0.,24.0,0.,24.0,0.,24.0,0.,24.0
1979-07-03 17:42:08.750 ,7,0,0.,24.0,0.,24.0,0.,24.0,0.,24.0
1979-07-03 17:42:32.750 ,7,1,0.,24.0,0.,24.0,0.,24.0,0.,24.0
1979-07-03 17:42:56.750 ,7,0,0.,24.0,0.,24.0,0.,24.0,0.,24.0
1979-07-03 17:43:20.750 ,6,1,0.,24.0,0.,24.0,0.,24.0,0.,24.0
1979-07-03 17:43:44.750 ,6,0,0.,24.0,0.,24.0,0.,24.0,0.,24.0
1979-07-03 17:44:08.750 ,0,0,0.,24.0,0.,24.0,0.,24.0,0.,24.0
1979-07-03 17:44:32.750 ,0,0,,0,,0,,0,,0
1979-07-03 17:44:32.750 ,0,0,0.,24.0,0.,24.0,0.,24.0,0.,24.0
1979-07-03 17:44:56.750 ,4,1,0.,24.0,0.,24.0,0.,24.0,0.,24.0
1979-07-03 17:45:20.750 ,4,0,0.,24.0,0.,24.0,0.,24.0,0.,24.0
1979-07-03 17:45:44.750 ,3,1,0.,24.0,0.,24.0,0.,24.0,0.,24.0
1979-07-03 17:46:08.750 ,3,0,0.,24.0,0.,24.0,0.,24.0,0.,24.0
1979-07-03 17:46:32.750 ,2,1,0.,24.0,0.,24.0,0.,24.0,0.,24.0
1979-07-03 17:46:56.750 ,2,0,0.,24.0,0.,24.0,0.,24.0,0.,24.0
1979-07-03 17:47:20.750 ,1,1,0.,24.0,0.,24.0,0.,24.0,0.,24.0
1979-07-03 17:47:44.750 ,1,0,0.,24.0,0.,24.0,0.,24.0,0.,24.0
1979-07-03 17:48:08.750 ,0,1,0.,24.0,0.,24.0,0.,24.0,0.,24.0
1979-07-03 17:48:32.750 ,0,0,0.,24.0,0.,24.0,0.,24.0,0.,24.0
1979-07-03 17:48:56.750 ,0,1,0.,24.0,0.,24.0,0.,24.0,0.,24.0
1979-07-03 17:49:20.750 ,0,0,0.,24.0,0.,24.0,0.,24.0,0.,24.0
1979-07-03 17:49:44.750 ,1,1,0.,24.0,0.,24.0,0.,24.0,0.,24.0
1979-07-03 17:50:08.750 ,1,0,0.,24.0,0.,24.0,0.,24.0,0.,24.0
1979-07-03 17:50:32.750 ,2,1,0.,24.0,0.,24.0,0.,24.0,0.,24.0
1979-07-03 17:50:56.750 ,2,0,0.,24.0,0.,24.0,0.,24.0,0.,24.0
1979-07-03 17:51:20.750 ,3,1,0.,24.0,0.,24.0,0.,24.0,0.,24.0
1979-07-03 17:51:44.750 ,3,0,0.,24.0,0.,24.0,0.,24.0,0.,24.0
1979-07-03 17:52:08.750 ,4,1,0.,24.0,0.,24.0,0.,24.0,0.,24.0
1979-07-03 17:52:32.750 ,4,0,0.,24.0,0.,24.0,0.,24.0,0.,24.0
1979-07-03 17:52:56.750 ,5,1,0.,24.0,0.,24.0,0.,24.0,0.,24.0
1979-07-03 17:53:20.750 ,5,0,0.,24.0,0.,24.0,0.,24.0,0.,24.0
1979-07-03 17:53:44.750 ,6,1,0.,24.0,0.,24.0,0.,24.0,0.,24.0
1979-07-03 17:54:08.750 ,6,0,0.,24.0,0.,24.0,0.,24.0,0.,24.0
1979-07-03 17:54:32.750 ,7,0,0.,24.0,0.,24.0,0.,24.0,0.,24.0
1979-07-03 17:54:56.750 ,7,0,0.,24.0,0.,24.0,0.,24.0,0.,24.0
1979-07-03 17:55:20.750 ,5,1,0.,24.0,0.,24.0,0.,24.0,0.,24.0
1979-07-03 17:55:44.750 ,1,1,0.,24.0,0.,24.0,0.,24.0,0.,24.0
1979-07-03 17:56:08.750 ,2,1,0.,24.0,0.,24.0,0.,24.0,0.,24.0
1979-07-03 17:56:32.750 ,6,1,0.,24.0,0.,24.0,0.,24.0,0.,24.0
1979-07-03 17:56:56.750 ,5,1,0.,24.0,0.,24.0,0.,24.0,0.,24.0
1979-07-03 17:57:20.750 ,1,1,0.,24.0,0.,24.0,0.,24.0,0.,24.0